Flag for India Weather past 2 weeks in Nadiad, Gujarat, India

Now
81 °F

Rain. More clouds than sun.


Feels Like: 88 °F
Forecast: 79 / 91 °F
Wind: 23 mph from West

Location: Ahmadabad Airport

Current Time: Jul 26, 2014 at 8:40:58 PM

Latest Report: Jul 26, 2014 at 7:40 PM


Visibility: 1 mi

Pressure: 29.68 "Hg

Humidity: 94%

Dew point: 79 °F

Location of NadiadLocation

Historic Weather in Nadiad — Graph

°F

Nadiad temperature yesterday

Maximum temperature yesterday: 86 °F (at 3:40 PM)
Minimum temperature yesterday: 75 °F (at 12:40 AM)
Average temperature yesterday: 80 °F

Past Weeks' High & Low Weather Summary

 TemperatureHumidityPressure
High104 °F (Jul 12, 3:40 PM)100% (Jul 17, 7:40 AM)29.71 "Hg (Jul 17, 7:40 AM)
Low75 °F (Jul 24, 10:40 PM)40% (Jul 12, 3:40 PM)29.39 "Hg (Jul 15, 3:40 PM)
Average86 °F78%29.53 "Hg
* Reported Jul 11 7:40 PM — Jul 26 6:40 PM, Nadiad, Weather by CustomWeather, © 2014

Note: Actual official high and low records may vary slightly from our data, if they occured in-between our weather recording intervals... More about our weather records

Advertising

Nadiad weather history for previous 24 hours

 ConditionsComfort  
Time TempWeatherWind HumidityBarometerVisibility
6:40 PM
Jul 26
84 °FLight rain. Broken clouds.7 mph89%29.65 "Hg2 mi
5:40 PM90 °FBroken clouds.9 mph67%29.62 "Hg2 mi
4:40 PM88 °FBroken clouds.5 mph79%29.59 "Hg2 mi
3:40 PM90 °FBroken clouds.9 mph75%29.62 "Hg2 mi
1:40 PM91 °FScattered clouds.10 mph67%29.68 "Hg2 mi
12:40 PM90 °FBroken clouds.13 mph71%29.68 "Hg2 mi
11:40 AM86 °FFog.10 mph79%29.71 "Hg2 mi
8:40 AM82 °FFog.7 mph89%29.68 "Hg1 mi
7:40 AM81 °FFog.6 mph94%29.68 "Hg1 mi
6:40 AM81 °FFog.6 mph94%29.68 "Hg2 mi
5:40 AM81 °FFog.7 mph94%29.65 "Hg2 mi
4:40 AM81 °FFog.7 mph94%29.65 "Hg2 mi
3:40 AM81 °FFog.5 mph94%29.65 "Hg2 mi
2:40 AM81 °FFog.7 mph94%29.62 "Hg2 mi
1:40 AM81 °FFog.7 mph89%29.65 "Hg2 mi
12:40 AM81 °FFog.3 mph94%29.65 "Hg2 mi
10:40 PM
Jul 25
81 °FFog.7 mph94%29.65 "Hg1 mi
9:40 PM81 °FFog.3 mph100%29.65 "Hg1 mi
8:40 PM81 °FFog.3 mph100%29.62 "Hg1 mi
Weather by CustomWeather, © 2014

See weather overviewHow to use our weather pages